Ciudad Obregón International Airport

Jump to: basic info | weather | frequencies | runways | comments

Related pages: nearby airports | nearby navaids | notams | map

Basic information (top)

Codes: CEN MMCN
Location: lon 27.392599, lat -109.833000, elev 243 ft / 74 m msl
Status: medium_airport
Scheduled airline service: yes
Links: Wikipedia Mobile

Weather (top)

Current conditions (rec'd 2014/09/18 20:45Z):

MMCN 182045Z 15004KT 10SM SCT025 35/18 A2971 RMK SLP061 8/400 HZY

Airport forecast (rec'd 2014/09/18 18:42Z):

TAF MMCN 181633Z 1818/1918 18010KT P6SM SCT020 BKN250 
     FM190600 18005KT P6SM SCT100 SCT250 
     FM191700 18010KT P6SM SCT100 BKN250

Frequencies (top)

Verify before use: may be inaccurate or out of date.

APP: 121.3 MHz (APP)
ATIS: 127.6 MHz (ATIS)
TWR: 118.3 MHz (OBREGON TWR)

Runways (top)

13/31: 7,546 x 148 ft (2,300 x 45 m) — paved — lighted

Latest comments (top)

No comments yet for Ciudad Obregón International Airport

More... (top)

See also NOTAMs and nearby airports and navaids, or visit the Ciudad Obregón International Airport page at the main OurAirports website..